This is the latest recevied weather packets stored in our database for station/object K4CRS-13. If no packets are shown the sender has not sent any weather packets the latest 10 day(s).
| Time | Temp. | Humidity | Pressure | Rain* | Wind** | Luminosity | Snow |
|---|---|---|---|---|---|---|---|
| 1787672370 | 30.56° C | 56% | 1053.8 hPa | 0 mm | - | 632 W/m² | - |
| 1787672066 | 30.56° C | 55% | 1053.8 hPa | 0 mm | - | 621 W/m² | - |
| 1787671765 | 31.67° C | 54% | 1053.9 hPa | 0 mm | - | 611 W/m² | - |
| 1787671460 | 31.11° C | 53% | 1053.8 hPa | 0 mm | - | 599 W/m² | - |
| 1787671155 | 30.56° C | 52% | 1053.7 hPa | 0 mm | - | 591 W/m² | - |
| 1787670851 | 30° C | 50% | 1053.8 hPa | 0 mm | - | 563 W/m² | - |
| 1787670546 | 30.56° C | 54% | 1054 hPa | 0 mm | - | 527 W/m² | - |
| 1787670241 | 30.56° C | 53% | 1054.1 hPa | 0 mm | - | 538 W/m² | - |
| 1787669940 | 30.56° C | 52% | 1054 hPa | 0 mm | - | 527 W/m² | - |
| 1787669635 | 31.11° C | 56% | 1054.1 hPa | 0 mm | - | 468 W/m² | - |
| 1787669335 | 31.11° C | 56% | 1053.8 hPa | 0 mm | - | 507 W/m² | - |
| 1787669032 | 31.11° C | 54% | 1054.1 hPa | 0 mm | - | 494 W/m² | - |
| 1787668728 | 30.56° C | 63% | 1053.9 hPa | 0 mm | - | 474 W/m² | - |
| 1787668424 | 31.11° C | 61% | 1053.9 hPa | 0 mm | - | 469 W/m² | - |
| 1787668124 | 30.56° C | 60% | 1054 hPa | 0 mm | - | 455 W/m² | - |
| 1787667819 | 30.56° C | 65% | 1054 hPa | 0 mm | - | 438 W/m² | - |
| 1787667514 | 30.56° C | 66% | 1054 hPa | 0 mm | - | 413 W/m² | - |
| 1787667211 | 30° C | 66% | 1054.1 hPa | 0 mm | - | 391 W/m² | - |
| 1787666910 | 30.56° C | 62% | 1054.1 hPa | 0 mm | - | 401 W/m² | - |
| 1787666606 | 30° C | 62% | 1054.1 hPa | 0 mm | - | 399 W/m² | - |
| 1787666305 | 30° C | 63% | 1054.3 hPa | 0 mm | - | 316 W/m² | - |
| 1787666002 | 28.89° C | 72% | 1054.3 hPa | 0 mm | - | 371 W/m² | - |
| 1787665702 | 28.89° C | 73% | 1053.9 hPa | 0 mm | - | 425 W/m² | - |
| 1787665397 | 27.22° C | 71% | 1053.8 hPa | 0 mm | - | 212 W/m² | - |
| 1787665092 | 26.67° C | 73% | 1054 hPa | 0 mm | - | 198 W/m² | - |
* Rain latest hour (hover to see other rain measurements)
** Current wind speed in m/s (hover to see current wind gust speed)